Location: Kui Tatk
(32.0384°N, 112.0812°W)
Time: 02:25:36
(UTC+00:00)

Hubble Space Telescope - Visible Passes

Search period start: 15 May 2021 00:00
Search period end: 25 May 2021 00:00
Orbit: 535 x 539 km, 28.5° (Epoch: 14 May)

Date Brightness Start Highest point End Pass type
(mag) Time Alt. Az. Time Alt. Az. Time Alt. Az.
17 May 3.2 12:01:53 10° S 12:03:22 12° SSE 12:04:51 10° SE visible
18 May 3.0 11:50:00 10° SSW 11:52:20 15° SSE 11:54:40 10° ESE visible
19 May 2.7 11:38:28 10° SSW 11:41:19 18° SSE 11:44:10 10° ESE visible
20 May 2.4 11:27:50 13° SSW 11:30:18 22° SSE 11:33:30 10° ESE visible
21 May 2.1 11:17:22 18° SSW 11:19:18 26° SSE 11:22:45 10° ESE visible
22 May 1.8 11:06:53 24° SSW 11:08:19 30° SSE 11:11:57 10° ESE visible
23 May 1.6 10:56:23 31° SSW 10:57:19 35° SSE 11:01:06 10° E visible
24 May 1.3 10:45:53 38° S 10:46:21 39° S 10:50:13 10° E visible
